Location: Launay
(47.2429°N, 1.5727°E)
Time: 19:27:34
(UTC+00:00)

BlueWalker 3 - Pass Details

Date: 19 May 2025
Orbit: 460 x 472 km, 53.2° (Epoch: 21 June)

Event Time Altitude Azimuth Distance (km) Brightness Sun altitude
Rises 22:41:26 0° 291° (WNW) 2,497 6.0 -21.0°
Reaches altitude 10° 22:43:57 10° 275° (W) 1,620 4.8 -21.1°
Enters shadow 22:45:27 17° 253° (WSW) 1,242 3.9 -21.2°
